Terug naar catalogus

STARLINK-30567

ActiefCommunicatieVLEO
NORAD 58067·PAYLOAD·🇺🇸 United States

Gelanceerd Oct 13, 2023 vanaf Cape Canaveral Space Force Station

Loading…

Volgende Passages (komende 24 uur)

TLE

VersSource: CelesTrak SupGP

Epoch: Sep 15, 2026, 02:04 UTC

1 58067C 23158S   26258.08659722 -.00028664  00000+0 -10381-2 0  2587
2 58067  43.0034  37.7267 0001497 269.1953  38.1827 15.27595427    17

Volg STARLINK-30567 in realtime met AllMySat

Download on the App Store